RH
4 3 3 3 3 3 2 2 2 2 2 2 2 2 2 2 2 3 3 3 2 3 3 3 3 3 3 3 3 3 3 4 4 5 8 9 11 14 16 19 21 22 24 24 24 24 25 24 23 23 24 26 27 29 27 27 24 19 22 20 30 62 76 69 69 75 76 72 63 51 39 29 22 21 21 21 19 16 15 14 12 11 10 10 9 9 10 12 14 17 23 31 34 35 38 38 38
3 3 3 3 3 3 2 2 2 2 2 2 2 2 2 2 3 2 2 3 2 2 2 3 3 3 2 2 2 3 3 3 4 5 7 8 11 14 17 20 21 23 24 25 26 27 27 25 22 21 23 26 28 29 27 22 19 19 26 26 27 40 47 54 66 74 77 74 65 54 42 31 24 22 23 22 19 17 16 14 13 12 11 10 10 10 10 11 14 17 22 32 36 36 39 40 39
3 3 3 3 3 2 2 2 2 2 2 2 2 2 2 2 2 2 2 2 2 2 2 2 2 2 2 2 2 3 4 4 5 6 7 9 12 15 17 20 21 23 23 25 27 29 29 25 21 20 24 28 30 28 23 18 16 18 27 30 28 32 40 51 63 69 76 75 64 55 45 33 26 23 23 22 20 17 16 15 14 13 12 11 10 10 10 11 12 15 20 29 37 38 41 41 39
3 3 3 3 2 2 2 2 2 2 2 2 1 2 2 2 2 2 2 1 2 2 2 2 2 2 2 3 2 3 4 5 5 6 8 9 13 15 17 20 21 22 23 25 26 26 24 19 17 18 22 26 27 25 20 18 17 18 26 28 29 46 61 68 72 71 75 73 63 55 45 34 26 23 22 22 21 19 18 17 16 14 13 11 11 11 10 10 11 13 17 26 38 42 43 42 38
3 3 3 2 2 2 2 2 2 2 2 2 1 2 1 2 2 1 2 2 2 1 2 2 2 2 2 3 3 4 4 5 6 7 9 10 13 14 16 18 20 22 21 21 21 19 16 14 17 18 20 22 21 20 19 19 19 24 30 29 41 70 81 84 87 78 75 73 64 56 45 34 26 24 24 22 21 20 21 20 19 17 15 13 11 11 10 10 11 12 16 24 38 45 47 45 39
3 3 3 2 3 2 2 2 2 2 2 2 2 2 2 2 1 2 2 2 2 2 2 2 2 2 2 3 3 4 4 5 6 7 9 11 12 13 15 16 17 18 16 16 15 14 13 14 17 17 18 18 18 20 20 21 25 33 39 37 50 78 88 93 94 81 79 75 65 56 43 33 28 27 25 23 21 21 22 23 23 22 20 16 13 11 10 11 11 12 16 22 36 49 53 52 45
3 3 3 2 3 2 2 2 2 2 2 2 2 2 2 2 2 2 2 2 2 2 2 2 2 2 3 3 4 4 5 6 7 7 9 10 10 11 12 13 14 13 13 13 12 13 12 13 15 17 17 16 20 24 27 30 33 39 44 46 54 75 93 98 93 85 81 72 63 54 42 34 30 28 26 24 22 21 22 23 24 25 24 21 17 12 9 10 10 11 16 21 33 51 60 62 58
3 3 3 3 3 2 3 3 3 3 2 3 3 3 2 2 2 2 2 2 2 2 2 2 2 3 3 3 5 5 5 6 7 8 8 9 10 11 11 12 12 12 12 12 13 12 11 14 15 17 18 17 21 23 37 49 46 45 48 53 62 76 91 95 92 87 77 68 63 52 41 36 31 28 24 23 22 19 18 17 19 22 24 25 23 17 10 8 9 10 15 22 31 46 60 68 69
3 3 3 3 3 3 3 3 3 3 3 3 3 3 2 3 2 2 2 2 2 3 2 3 3 4 4 4 6 5 5 7 8 9 9 11 11 12 12 13 14 13 12 12 11 10 11 13 14 20 21 21 24 27 51 71 70 66 61 59 66 77 88 95 92 81 74 69 61 50 43 37 31 28 25 24 22 20 19 17 15 16 19 22 25 24 17 9 8 9 14 23 29 38 53 67 74
4 4 4 4 3 3 3 3 3 3 3 3 3 3 3 3 2 3 2 3 3 3 3 3 3 4 5 5 6 7 7 8 9 10 10 12 13 12 13 13 13 12 13 12 10 11 11 11 15 28 42 50 46 48 67 78 83 86 76 64 73 88 93 93 86 77 74 68 59 51 44 38 33 30 28 24 21 22 25 24 19 17 17 20 24 27 23 14 8 9 13 22 28 36 47 62 73
4 4 4 4 4 4 4 4 3 3 3 3 3 3 3 3 3 3 3 3 3 3 3 3 4 5 6 7 8 9 9 10 10 11 11 11 11 10 11 13 13 12 12 11 11 11 9 14 19 28 59 83 68 58 69 70 71 81 80 72 83 99 94 87 82 77 72 65 60 52 45 40 36 32 28 26 25 26 29 31 29 26 23 21 24 27 25 19 11 8 11 21 30 37 47 58 70
5 5 5 5 5 5 4 4 4 4 3 3 3 3 3 3 3 3 3 3 3 5 4 5 6 6 9 10 11 11 11 12 11 11 10 8 9 9 11 11 11 12 12 11 10 8 10 15 18 19 42 74 71 56 62 68 68 77 85 84 94 100 88 84 83 75 70 65 61 53 48 43 38 34 31 32 31 31 35 38 41 41 35 27 25 26 25 21 15 10 9 17 28 37 49 59 67
6 6 5 6 6 5 5 5 5 4 4 4 3 3 3 3 3 3 3 3 4 5 5 8 8 8 14 14 15 15 13 14 13 12 10 9 10 9 11 11 12 12 10 9 7 6 6 10 30 44 49 68 73 57 63 79 80 83 90 93 98 92 80 84 81 70 67 66 62 56 52 47 40 37 36 37 35 35 39 41 49 55 49 36 28 27 26 23 18 13 10 13 22 35 51 61 67
7 7 7 7 6 6 7 6 5 5 4 4 4 4 4 4 4 3 4 4 4 6 7 11 11 12 17 17 20 18 16 17 15 13 11 10 11 11 12 12 11 9 6 6 6 7 6 13 45 66 68 78 76 67 77 86 85 86 92 97 95 86 83 85 75 66 68 69 66 61 55 49 43 43 44 42 39 41 43 43 51 61 59 46 34 30 29 26 21 15 11 11 18 31 49 61 66
8 8 8 8 8 8 8 7 6 5 5 5 4 5 4 4 4 4 4 4 5 7 9 13 13 17 21 20 21 19 17 16 14 13 12 11 12 12 12 10 9 6 6 14 13 10 10 13 30 37 37 53 61 70 82 81 84 94 96 95 90 87 88 83 71 68 72 73 69 65 57 51 48 49 49 45 43 44 44 44 48 57 60 55 47 39 35 31 23 16 11 11 15 25 42 57 66
8 8 8 9 9 9 9 8 7 6 6 5 5 5 5 5 4 4 4 5 7 7 11 15 13 17 21 20 20 19 16 14 13 12 11 12 12 12 10 8 7 5 9 20 15 8 12 13 19 22 25 47 68 78 85 84 88 99 97 89 86 89 89 80 73 73 75 73 70 65 55 51 51 47 45 43 43 42 41 41 46 55 58 57 55 49 44 39 30 20 13 10 12 19 30 49 64
8 8 8 9 10 10 10 8 7 7 6 6 6 6 6 6 5 5 5 5 6 7 10 13 13 15 19 20 19 17 14 13 12 12 12 14 12 10 8 5 7 7 4 9 5 4 16 15 17 24 32 54 75 78 81 91 96 97 88 81 88 92 90 80 71 74 75 72 69 65 54 47 47 43 42 42 41 40 38 37 41 50 54 53 52 50 49 49 41 28 18 11 12 16 21 33 52
9 9 10 10 11 11 10 8 7 7 7 7 7 7 7 6 6 6 6 5 6 7 8 11 12 13 16 17 16 15 14 14 14 15 14 11 10 7 7 5 7 6 5 17 17 12 21 24 23 28 38 49 63 74 79 90 95 93 83 82 92 91 86 77 70 74 73 70 72 66 53 46 45 44 45 43 41 40 38 38 38 41 44 43 41 43 47 53 52 39 26 17 12 15 17 20 32
10 11 12 12 12 12 11 9 8 7 8 7 7 7 7 7 7 6 6 6 6 7 8 8 10 11 12 12 13 16 17 18 18 16 12 10 9 6 8 7 9 19 32 52 51 37 40 43 38 43 62 66 64 75 83 86 82 84 92 88 87 86 80 73 69 73 72 74 74 65 56 52 50 49 47 44 43 42 40 41 39 34 33 31 30 40 49 55 58 51 41 29 18 15 15 17 20
13 13 14 14 13 13 12 10 9 9 9 8 8 8 8 9 8 8 8 7 7 7 7 7 9 9 10 12 16 21 22 20 16 13 11 9 7 9 19 27 36 52 62 67 64 58 57 53 59 72 85 82 69 69 75 83 82 87 99 90 84 86 78 73 74 77 77 75 70 63 60 55 49 47 47 45 43 41 38 35 32 30 32 31 31 39 52 58 58 54 50 41 28 16 13 15 17
14 15 16 15 15 15 14 12 10 10 10 10 10 9 9 9 9 10 9 10 9 9 9 9 9 10 15 20 23 23 20 17 13 12 8 6 17 21 27 44 59 69 68 67 70 75 68 57 73 86 82 82 75 73 76 86 96 96 94 90 87 81 73 76 80 79 74 67 64 64 60 51 40 36 39 41 39 34 30 27 26 31 40 49 48 44 48 56 57 54 52 46 34 19 13 13 15
15 17 17 16 16 16 15 14 13 12 13 12 12 11 10 10 9 9 10 10 10 10 12 13 15 19 23 24 22 19 16 15 12 10 7 7 20 26 36 57 67 74 78 75 76 88 85 71 82 85 78 91 87 81 92 96 98 95 92 91 86 75 71 75 73 69 64 60 63 64 60 51 38 28 25 26 26 23 21 20 23 31 44 58 65 61 55 55 57 56 55 51 40 23 14 14 17
17 18 18 17 17 17 16 16 15 15 14 13 12 12 11 11 10 9 11 11 11 12 15 21 26 26 26 23 18 17 15 13 10 8 8 6 9 27 60 79 71 73 83 81 81 94 95 82 88 81 71 92 89 78 94 98 91 92 94 90 83 77 72 69 62 57 55 55 57 58 55 46 30 19 16 15 14 14 14 15 22 32 43 55 66 70 67 63 61 60 59 58 51 34 20 15 17
18 20 19 18 18 17 17 17 17 16 14 13 12 12 12 12 10 10 11 11 12 13 17 26 31 26 23 20 16 16 14 11 10 9 8 5 5 18 45 64 65 69 76 84 93 98 95 87 90 83 77 93 85 76 91 95 91 91 88 82 80 79 71 65 57 49 46 43 40 40 38 27 16 11 11 11 10 11 11 12 19 26 35 47 60 68 70 69 67 65 64 63 59 50 39 29 22
19 21 19 18 19 17 16 17 17 16 15 14 13 14 13 12 11 11 12 12 13 14 19 26 28 25 21 17 15 15 14 11 11 10 7 5 5 12 32 46 43 44 52 71 91 91 88 93 97 92 93 94 79 81 94 89 85 80 73 73 77 76 69 61 51 43 39 32 25 22 19 13 9 9 9 9 9 11 12 12 13 14 24 38 54 66 70 71 70 71 70 67 66 64 59 51 41
20 20 18 18 20 17 16 16 16 16 16 15 15 16 14 13 12 12 13 13 14 16 19 23 25 22 17 15 15 15 14 12 11 11 6 7 13 23 45 47 24 17 27 45 62 66 76 92 101 95 91 90 81 82 85 78 75 69 68 75 77 72 64 53 40 32 28 21 15 13 11 9 9 8 8 8 9 15 21 21 19 17 22 30 43 59 71 76 79 81 80 78 79 80 81 75 66
20 19 18 18 19 17 16 16 17 17 17 18 18 17 16 14 13 14 14 14 15 16 18 21 22 19 17 16 16 16 15 13 14 11 6 20 41 40 37 34 23 19 21 24 28 47 80 97 98 92 84 83 77 71 71 74 74 71 75 78 73 65 53 37 25 19 15 12 10 10 9 9 9 8 8 8 9 20 27 28 33 30 26 29 38 55 73 82 84 85 83 81 82 86 94 95 89
19 19 18 19 19 18 17 17 18 18 19 19 19 19 17 16 16 16 16 15 15 16 17 20 19 18 18 17 17 17 16 15 13 12 9 26 54 53 38 31 30 28 25 23 18 42 88 104 98 90 81 75 66 66 70 73 79 85 85 77 66 55 38 23 16 12 9 9 10 9 9 9 9 8 8 7 10 25 35 39 41 36 31 40 53 66 78 80 77 75 73 75 82 91 99 101 100
19 19 19 19 19 19 19 19 19 19 19 20 20 20 19 18 18 18 18 18 16 17 18 19 20 19 19 18 18 17 17 15 12 14 13 26 57 64 50 40 37 36 35 34 24 30 57 71 75 75 73 70 70 84 85 76 87 95 83 67 54 39 25 19 13 9 7 9 9 8 10 10 9 9 8 14 19 24 35 43 42 38 37 51 71 78 76 74 69 63 59 64 76 89 97 98 99
18 19 20 19 19 19 19 20 20 20 20 21 21 20 21 20 20 20 20 19 18 18 18 20 21 20 19 18 18 17 16 14 13 14 13 35 73 77 61 45 38 38 36 40 40 38 42 47 59 67 67 65 72 94 95 86 91 84 67 53 40 28 22 19 12 8 7 8 8 8 10 9 9 9 9 21 30 28 35 38 36 41 45 55 75 78 70 68 67 62 54 54 59 69 80 85 90
18 19 20 19 20 20 20 20 20 21 21 21 21 21 20 20 20 19 19 20 19 19 19 20 21 19 20 18 18 16 15 14 13 14 14 34 60 68 76 57 28 27 28 35 47 49 53 57 65 71 69 70 81 98 101 92 80 64 50 39 30 26 22 19 12 7 7 7 8 7 8 8 8 9 9 16 22 26 33 34 32 41 48 54 69 75 69 64 71 80 70 52 48 53 61 67 75
17 19 20 20 21 20 20 21 21 22 21 21 22 21 20 20 20 18 19 19 19 19 19 20 20 20 20 18 18 15 15 15 12 14 12 22 34 46 81 73 25 16 19 25 37 42 53 65 73 75 74 78 83 88 87 74 56 43 37 29 24 22 20 18 13 8 8 7 8 7 7 8 8 8 9 9 10 14 19 25 30 38 47 53 63 73 70 59 63 79 74 57 50 51 53 56 64
16 18 20 20 21 21 21 21 21 22 21 21 21 20 20 19 19 18 19 19 18 19 19 21 20 19 19 18 19 17 18 16 12 16 10 18 30 28 63 75 31 13 13 16 25 30 46 66 78 79 74 75 75 71 60 48 42 37 32 27 23 20 18 17 13 10 9 8 7 8 7 8 8 8 9 9 8 8 9 16 22 29 42 51 57 64 65 57 48 47 56 64 59 50 50 53 58
16 18 19 20 21 21 21 21 21 21 21 21 20 20 19 18 19 18 18 18 18 19 19 21 20 19 19 18 20 21 22 20 14 15 9 17 28 27 58 70 29 11 13 13 18 26 44 66 82 83 74 69 74 81 68 51 48 44 37 31 25 22 19 17 15 13 11 10 8 8 7 7 8 7 10 13 10 7 7 10 14 19 32 46 51 52 54 52 42 32 40 65 70 52 44 48 49
16 17 19 19 20 20 21 21 20 20 20 19 19 19 18 18 18 18 18 17 16 18 19 21 20 19 20 21 27 30 27 25 20 17 13 13 14 21 44 41 14 11 13 10 15 24 40 60 77 87 86 81 84 95 84 62 56 51 43 36 29 26 23 20 20 16 13 12 11 10 9 8 9 8 9 11 8 7 7 7 10 13 21 39 51 51 46 44 45 38 31 57 82 61 37 37 37
15 16 17 17 19 19 19 20 19 19 19 19 19 17 17 17 17 16 15 15 14 17 18 19 20 18 20 25 34 37 33 30 26 20 17 15 12 12 17 14 9 11 10 9 12 24 41 53 66 79 88 90 92 94 80 65 65 61 49 38 32 28 26 27 25 19 14 14 14 13 12 11 11 9 7 8 7 7 7 7 9 10 14 27 46 53 46 40 47 45 30 43 66 47 23 23 22
15 16 16 16 17 17 18 18 18 19 18 18 17 16 16 15 14 14 11 12 13 17 19 18 19 20 25 33 39 44 44 38 32 28 23 21 18 14 11 10 10 9 9 11 12 22 37 43 53 67 75 77 76 70 60 61 71 70 60 48 38 33 32 34 31 23 16 15 16 14 14 14 14 12 9 7 8 7 7 8 9 10 12 17 32 42 37 38 45 41 26 27 37 30 18 15 12
16 16 16 16 17 16 17 17 17 17 16 16 15 14 14 12 12 11 9 13 15 18 20 20 26 31 34 39 45 54 56 44 34 31 28 25 21 17 15 11 11 12 13 17 18 21 24 27 40 55 62 58 51 48 52 63 71 69 62 53 45 42 39 37 33 24 16 16 17 15 13 13 14 14 12 9 8 8 7 8 8 9 11 13 21 28 27 32 39 33 26 29 38 35 22 14 13
14 15 15 15 15 15 15 15 15 14 13 13 13 13 13 12 12 12 14 17 21 22 23 31 43 47 49 50 50 59 63 50 37 32 28 27 24 19 16 14 13 14 14 18 20 17 16 22 35 46 49 46 48 55 63 69 68 62 55 50 46 44 40 35 30 22 17 16 16 16 15 14 14 13 13 11 9 9 8 8 9 8 10 11 15 22 22 23 30 33 33 34 33 26 18 15 15
12 12 13 13 13 13 13 12 12 11 12 14 16 18 18 17 18 20 23 25 29 32 34 44 53 57 58 53 49 54 56 46 35 31 29 25 23 20 16 15 13 13 15 15 14 14 19 25 31 39 48 56 63 68 70 71 66 59 53 51 49 45 39 32 24 19 16 15 15 14 13 12 14 14 13 13 11 10 9 8 9 9 9 10 11 16 17 16 23 30 29 23 16 12 13 13 12
9 9 9 10 10 11 10 10 10 11 14 19 24 29 29 27 29 32 33 36 40 44 49 53 53 53 48 44 58 68 60 45 30 26 28 26 23 17 13 13 12 12 12 11 15 18 24 39 55 66 76 79 73 68 70 71 65 57 54 52 51 47 38 28 24 24 20 17 17 19 20 17 14 14 14 13 12 11 11 10 10 10 9 10 10 11 11 11 14 17 14 11 10 11 11 10 11
7 7 8 8 8 9 9 9 11 16 23 26 29 39 41 35 37 42 42 45 51 54 57 55 51 49 40 45 72 76 58 42 27 25 33 33 27 18 12 13 10 12 13 16 27 31 38 66 84 82 77 66 55 53 61 66 62 57 55 51 51 50 42 36 38 39 35 30 24 25 32 33 28 21 17 15 14 13 12 12 11 11 11 10 10 10 9 9 10 10 9 9 10 10 10 11 11
7 7 8 8 8 9 10 11 16 27 38 40 36 41 49 44 40 43 44 51 59 61 62 57 51 49 46 52 60 50 39 33 26 29 35 35 33 23 14 13 13 19 27 37 50 56 69 92 88 63 48 41 38 42 50 58 60 59 56 51 49 48 45 47 42 33 33 36 33 33 37 44 43 31 21 17 15 14 14 13 12 12 12 12 11 10 10 10 9 9 10 10 10 10 10 11 10
8 9 9 9 9 11 13 14 22 36 48 54 51 45 49 51 46 41 45 58 65 64 63 57 50 53 59 61 54 43 39 34 31 33 30 30 35 30 17 17 27 36 49 65 74 77 89 99 81 56 50 49 46 46 48 52 54 54 53 50 47 46 48 48 36 27 31 35 35 35 34 38 40 31 20 16 15 15 15 14 14 13 12 13 13 12 11 11 11 10 11 11 11 11 11 12 12
10 10 11 11 11 12 13 16 26 40 51 60 63 55 52 53 51 46 47 59 67 67 65 57 51 56 62 60 58 58 50 40 37 32 24 25 32 34 23 16 28 49 74 91 88 84 93 96 78 62 63 61 52 48 45 40 40 44 49 52 51 50 50 41 32 36 43 45 42 32 24 22 22 21 19 18 15 14 15 14 14 14 13 13 13 13 13 12 13 12 13 13 13 13 13 13 14
12 11 11 12 14 13 14 18 27 40 52 61 65 64 60 56 53 53 53 57 62 61 59 55 51 55 62 63 67 73 63 49 44 36 25 22 26 34 30 18 23 46 71 86 89 91 94 89 80 77 81 78 69 62 55 46 38 37 45 54 59 58 51 38 37 47 50 53 53 37 22 19 18 21 23 23 20 15 13 14 14 14 14 14 13 13 13 13 13 13 13 13 13 13 13 13 13
13 12 12 13 15 16 17 21 26 38 52 59 61 63 63 58 54 55 59 61 61 58 55 56 59 63 72 79 81 83 76 59 49 42 34 27 23 28 33 32 37 48 51 51 67 90 99 94 92 94 89 80 76 71 66 62 56 49 46 48 53 56 53 45 49 60 57 54 59 51 37 33 33 32 30 26 21 16 13 12 13 14 14 14 14 13 14 13 13 13 12 12 12 12 11 10 10
14 14 14 14 16 18 22 27 27 35 51 57 57 59 61 61 58 59 63 64 62 61 60 64 69 70 73 81 84 84 82 68 51 43 41 38 30 23 27 34 44 56 51 39 45 68 88 93 94 98 86 66 66 68 62 58 57 59 58 53 50 51 56 57 61 73 73 61 63 67 57 51 51 44 33 26 20 16 14 11 11 12 12 13 13 13 13 13 12 12 11 11 11 10 9 8 7
16 17 17 19 19 19 23 29 30 32 46 57 60 61 63 64 64 64 66 65 64 66 68 72 74 70 68 71 74 76 77 74 62 52 49 48 39 26 23 29 37 47 48 39 39 60 84 87 84 95 92 77 82 84 72 64 62 65 68 67 63 60 61 62 66 84 93 77 71 78 74 68 64 48 27 19 17 14 13 11 11 11 11 11 11 11 11 11 11 10 10 10 9 8 7 6 5
25 25 25 25 25 23 22 24 25 27 38 55 64 66 68 69 67 65 66 67 68 73 76 80 81 77 73 68 67 67 68 71 71 64 57 49 40 31 29 30 29 40 55 51 45 63 86 90 92 97 90 83 90 83 67 65 69 72 75 73 73 76 75 71 74 91 103 94 83 86 88 82 76 58 31 16 14 13 12 11 11 10 10 10 9 10 10 10 10 9 8 8 7 7 6 5 5
42 39 37 36 32 30 27 24 24 27 36 52 64 69 71 72 70 65 66 69 73 78 82 85 85 81 78 75 71 64 57 59 62 60 56 45 34 33 39 38 32 45 72 74 61 62 65 70 86 90 76 67 70 68 66 71 75 77 82 82 79 83 86 81 82 88 96 99 95 94 96 92 86 76 49 23 13 12 11 11 11 10 9 8 8 8 8 8 8 8 7 6 6 5 4 4 5
46 43 41 42 39 35 34 31 30 31 38 50 64 73 73 73 74 69 67 71 74 78 81 82 80 76 74 72 71 64 51 46 49 51 50 41 33 39 47 49 47 55 70 75 76 77 66 61 68 69 60 48 42 52 66 71 68 65 69 74 75 78 81 78 79 82 87 96 100 99 99 98 94 82 59 34 18 12 10 9 9 10 9 9 8 7 7 7 6 5 5 5 5 4 4 4 4
50 47 45 48 48 45 42 38 35 33 37 45 60 76 80 78 79 77 74 77 80 82 83 83 82 80 75 66 63 58 42 34 42 49 51 43 37 44 53 58 64 71 78 83 91 93 83 73 63 52 45 32 23 31 36 30 35 45 48 50 55 62 68 74 82 88 91 95 99 101 100 101 97 80 59 41 24 14 13 11 10 10 10 10 9 8 8 7 6 5 4 4 4 3 3 3 4
61 62 60 59 57 52 47 44 40 36 37 40 50 69 81 84 84 82 81 82 84 87 87 83 79 75 73 66 59 48 32 30 42 51 54 45 30 31 44 52 54 62 72 81 94 99 92 80 64 46 35 23 16 19 16 10 21 41 47 46 57 71 77 81 84 90 97 100 99 100 99 101 99 83 65 50 33 20 16 14 14 14 13 14 13 12 12 11 10 9 8 7 6 6 7 7 7
62 68 70 68 63 57 52 47 42 38 37 37 42 53 66 78 84 86 86 84 83 84 78 71 66 67 69 65 53 38 28 31 41 48 50 42 29 33 48 49 40 42 52 65 84 95 89 77 59 40 28 23 20 18 15 12 17 29 36 40 57 81 92 87 77 78 88 97 101 101 100 102 100 88 75 63 49 37 28 22 19 18 17 18 17 16 17 16 16 15 14 14 13 13 13 14 15
60 64 69 68 65 64 62 56 49 45 41 38 40 43 46 54 62 67 70 69 66 64 58 51 51 54 53 47 38 31 29 33 39 43 43 40 40 48 53 48 41 39 45 60 78 83 78 68 51 36 30 27 26 25 22 20 19 20 23 22 27 46 65 70 68 65 63 72 88 93 93 97 98 90 79 67 58 52 46 38 32 26 22 21 20 20 20 20 19 18 19 20 21 22 22 22 23
66 65 68 66 62 62 63 62 58 53 49 44 41 42 41 42 43 45 48 49 46 42 38 36 38 40 39 38 33 28 29 32 36 40 41 45 57 63 57 55 60 62 61 67 74 71 64 57 46 38 34 29 27 26 23 22 21 20 21 19 15 19 29 40 53 56 46 46 56 59 63 74 84 88 80 66 59 55 52 48 42 35 30 26 25 25 24 24 23 22 22 24 25 26 26 27 27
72 71 72 70 67 65 64 64 61 57 56 52 46 46 48 48 47 47 48 48 44 38 33 32 34 36 41 45 37 33 41 43 43 53 62 66 78 88 86 84 87 89 83 76 70 63 56 52 45 38 34 33 34 33 29 25 23 23 24 24 20 17 17 22 32 40 42 44 44 41 44 55 71 84 83 74 67 61 54 49 45 40 35 32 31 31 30 30 29 28 27 27 28 28 29 29 29
Wind_Speed
32 33 33 33 33 33 33 32 32 31 30 29 28 28 27 27 27 28 29 29 30 31 31 30 30 31 31 31 32 31 31 31 31 30 29 30 29 29 28 28 27 27 27 27 26 25 24 24 25 27 28 29 30 31 31 32 32 32 30 27 24 24 24 25 25 25 24 22 22 22 22 22 20 18 17 17 17 17 17 16 15 15 14 14 13 12 12 11 11 9 7 6 6 5 4 5 6
32 32 33 33 33 33 33 32 32 32 30 30 29 28 28 28 29 30 29 29 31 32 31 30 31 31 32 32 32 32 32 32 32 31 31 31 30 30 29 29 29 28 28 28 27 27 26 26 27 28 30 30 31 31 31 32 32 31 28 26 25 25 26 26 25 24 24 23 23 23 23 22 20 17 16 16 16 17 16 16 15 15 15 14 14 13 12 12 11 10 8 7 7 6 5 6 7
32 32 33 33 33 33 33 32 32 31 31 30 28 28 28 29 31 31 30 30 32 32 31 30 30 31 32 32 32 32 32 32 32 32 32 32 31 31 30 30 30 29 29 29 29 28 28 28 28 30 30 30 31 31 31 32 32 30 27 26 25 26 26 25 24 24 23 23 23 24 23 22 19 17 16 16 16 16 16 15 15 14 14 14 14 14 13 13 12 11 9 8 8 7 7 7 8
32 32 32 32 33 32 33 32 31 31 29 28 27 28 29 30 31 30 30 31 32 32 31 30 31 31 32 32 33 33 33 33 33 33 32 32 32 32 32 31 31 30 30 30 30 30 29 29 30 31 31 31 31 32 32 32 32 30 28 27 25 24 24 23 23 23 23 23 24 24 23 21 19 16 16 16 16 17 16 16 15 14 14 14 14 14 14 13 13 12 10 9 9 9 9 8 8
32 32 32 32 32 31 31 31 30 29 27 26 27 28 28 30 31 30 30 32 32 32 32 31 31 31 32 33 34 33 34 34 34 33 33 32 32 32 32 32 32 31 31 31 31 30 29 30 31 32 32 32 33 34 34 33 32 31 29 27 25 23 22 23 22 22 22 22 23 24 23 21 19 16 15 16 16 17 17 16 15 15 14 14 13 13 14 14 13 12 11 11 10 10 10 9 9
30 31 31 31 30 30 30 30 28 27 26 27 27 26 28 30 31 31 31 32 32 32 32 31 31 31 32 33 34 34 34 34 34 34 33 33 32 32 32 33 32 32 32 32 31 31 31 32 32 33 33 34 35 36 36 35 31 29 28 26 24 22 22 22 22 22 21 21 23 24 23 21 18 16 15 16 16 16 16 15 15 14 14 13 13 13 13 14 13 13 12 12 12 12 11 10 10
29 29 29 29 29 29 29 28 27 27 27 26 24 26 28 31 31 32 32 32 31 31 31 31 31 32 33 34 34 34 34 34 35 34 34 34 33 33 33 33 32 32 32 32 32 32 33 34 34 35 35 36 36 36 37 35 31 29 28 26 23 22 22 21 21 21 20 21 23 23 22 19 18 17 16 17 16 15 15 15 15 14 14 13 13 13 13 14 13 13 13 13 13 13 12 12 11
28 28 28 28 28 28 27 26 27 27 26 24 24 26 30 31 31 31 31 31 31 31 31 31 31 31 32 33 33 34 34 35 35 35 35 35 35 34 34 34 33 33 33 33 33 34 35 35 36 36 37 37 36 35 35 33 31 29 28 26 24 22 22 21 20 20 20 21 21 21 20 18 18 18 19 18 17 17 18 17 17 16 15 14 13 13 14 14 14 14 14 13 14 14 14 14 14
27 27 27 27 27 26 26 25 25 25 24 24 24 27 30 31 30 30 30 30 30 30 30 30 30 30 31 32 33 34 35 35 35 35 35 35 36 36 35 35 34 34 34 34 35 36 36 37 37 37 38 37 35 33 31 29 28 28 27 26 25 24 22 19 18 18 19 20 19 19 18 18 19 20 21 20 20 20 20 20 19 18 18 16 15 14 14 15 15 14 14 13 14 14 15 16 16
26 26 26 26 26 25 25 24 24 24 24 25 25 28 30 29 28 28 29 30 30 30 30 30 30 30 30 32 33 34 34 35 35 35 35 36 36 36 36 35 35 34 34 35 36 37 38 38 36 36 36 33 30 29 27 26 26 29 28 25 26 25 21 18 18 18 18 18 17 18 18 19 20 21 22 22 22 22 21 20 20 20 19 18 16 15 14 14 15 14 14 14 14 14 15 16 17
25 25 24 25 24 24 24 23 23 23 24 25 27 28 27 26 26 26 28 29 29 29 29 29 29 29 30 31 32 33 34 35 35 35 36 36 37 36 36 35 34 34 35 36 37 38 37 37 37 36 32 26 24 27 27 27 29 30 28 25 25 25 21 18 17 17 17 17 17 18 19 20 21 22 23 24 24 23 21 20 20 20 19 19 17 16 14 13 15 15 15 15 15 15 15 16 17
24 23 23 23 23 23 22 22 22 23 24 26 27 26 23 24 26 26 27 28 28 28 29 29 29 29 29 30 32 33 34 35 35 36 37 37 37 36 35 34 34 34 35 36 37 36 36 37 38 35 31 27 24 26 28 30 30 29 26 24 24 22 20 18 18 18 17 17 18 18 19 20 21 23 24 25 24 22 20 20 20 20 19 18 17 16 15 14 14 15 15 15 15 15 15 16 18
23 22 22 21 21 21 20 20 21 23 24 25 25 23 22 24 26 26 27 28 28 29 29 29 28 29 29 31 32 33 34 35 35 36 37 37 37 36 35 34 34 34 34 35 35 35 34 34 34 32 29 27 26 26 28 30 28 28 27 25 24 22 20 19 19 18 17 17 18 19 20 21 23 24 24 24 22 20 19 20 19 18 17 16 16 16 16 15 14 15 16 16 16 16 16 17 18
22 22 21 20 20 19 18 19 20 22 22 22 23 22 22 23 25 27 27 28 28 29 29 29 29 29 29 31 32 33 34 35 36 36 37 37 36 36 35 35 34 34 34 34 33 33 31 28 27 28 26 25 25 26 26 27 27 28 27 24 23 21 20 19 18 17 16 17 18 19 21 22 24 25 25 24 22 20 20 20 17 15 14 13 14 15 16 15 15 15 16 17 17 17 18 18 19
22 21 21 19 18 17 17 18 20 21 21 21 22 21 21 22 24 26 27 28 28 29 29 29 30 29 29 31 32 34 35 35 35 35 36 35 35 35 35 35 35 34 33 31 30 29 27 24 25 28 28 29 28 26 24 24 26 26 24 22 21 21 20 19 16 16 16 17 18 19 21 23 24 24 24 23 22 20 20 19 18 16 14 12 12 14 15 15 15 14 15 17 18 18 18 19 20
21 20 20 18 17 16 16 18 19 20 20 20 21 20 20 22 23 26 27 28 29 30 30 30 31 30 30 32 33 34 34 34 34 34 34 33 34 34 35 35 34 33 30 28 28 27 26 23 26 27 25 28 27 23 22 23 27 27 22 20 21 21 20 18 16 16 16 17 18 20 22 23 22 22 23 22 21 20 19 19 18 17 16 15 14 14 15 15 16 15 15 17 19 19 19 20 21
20 20 19 17 16 15 16 19 20 20 20 21 21 20 20 21 23 25 26 28 29 30 31 31 32 32 32 33 33 33 33 33 33 33 33 33 33 34 34 33 31 30 29 27 27 26 24 24 26 26 22 24 25 22 21 20 23 23 20 20 20 20 20 19 17 16 16 17 19 21 23 24 24 24 24 23 21 20 19 19 18 17 16 16 17 17 17 17 17 17 16 17 19 20 20 21 22
19 18 16 15 15 15 17 19 21 21 21 21 21 20 20 20 22 24 25 26 27 29 31 32 33 33 33 33 33 33 33 33 33 34 33 33 32 32 31 31 29 28 28 26 26 23 21 22 23 24 24 25 24 22 21 20 18 18 20 22 21 20 19 18 17 16 16 19 21 23 25 26 25 25 25 24 22 21 20 19 18 18 18 18 18 18 18 18 17 18 18 18 19 21 21 22 23
19 17 15 15 15 15 17 20 21 20 20 20 20 20 19 19 21 22 23 25 26 28 30 32 32 32 32 32 33 33 33 33 33 34 33 31 30 29 28 27 26 24 22 20 22 21 18 19 20 22 24 22 22 21 20 21 21 21 21 22 19 18 18 17 16 16 18 21 23 24 25 24 23 24 24 23 22 20 20 18 18 18 19 19 18 17 17 17 17 18 18 19 20 21 22 22 23
19 17 15 15 15 16 18 20 20 19 18 19 20 19 18 17 18 19 21 23 26 29 29 29 28 28 29 30 31 31 32 32 33 32 31 29 27 25 23 21 21 20 18 18 19 20 19 19 20 21 20 19 21 21 20 22 22 22 21 22 20 16 16 17 17 18 20 22 24 23 21 20 19 20 21 20 19 19 18 18 18 18 17 16 16 16 16 17 18 19 19 20 20 21 22 22 23
19 17 15 15 17 17 18 19 19 18 17 18 18 17 16 15 15 16 19 22 24 26 26 25 24 25 27 27 29 30 31 31 31 29 28 26 22 19 17 16 17 16 17 19 19 19 19 17 19 21 19 20 21 19 22 23 21 19 14 15 17 14 14 15 16 18 20 22 22 20 18 17 17 18 18 18 18 18 18 17 17 16 15 14 14 16 17 17 19 19 20 20 21 20 21 22 23
18 17 16 17 19 19 19 18 19 18 17 17 17 16 15 14 13 15 17 20 22 22 22 22 23 24 25 26 27 28 28 28 27 27 25 21 17 16 16 16 16 16 17 18 19 20 19 18 20 21 19 19 20 18 22 25 23 19 11 7 8 9 11 11 13 15 17 17 17 16 16 16 18 18 17 17 17 17 16 16 15 14 13 13 13 14 17 18 19 20 20 20 20 19 19 21 22
18 17 17 19 20 20 20 19 19 18 17 16 16 15 14 14 14 15 17 19 19 19 19 21 24 25 25 26 26 25 26 26 25 23 20 19 18 16 16 18 18 19 18 17 20 21 19 19 20 22 21 22 21 17 20 24 23 19 15 13 11 9 10 11 12 13 12 12 13 14 16 18 18 17 15 15 15 15 14 14 14 13 12 12 12 12 14 17 18 19 20 20 20 19 19 20 21
19 18 19 20 21 21 21 20 19 17 17 17 16 15 14 14 15 16 17 18 17 18 19 22 25 26 26 26 24 24 25 24 20 17 17 17 17 15 17 21 22 21 19 18 19 18 17 18 20 21 22 24 21 16 18 22 21 17 16 18 16 13 13 12 12 12 11 11 12 14 16 16 14 13 13 13 12 13 13 13 13 12 11 11 11 12 14 15 17 19 19 19 20 20 20 20 21
20 20 21 22 23 23 22 20 18 17 17 17 15 14 14 14 15 15 16 16 16 17 18 20 23 23 24 23 21 22 21 19 14 13 14 15 14 13 17 21 22 21 20 20 19 17 17 18 21 24 22 23 19 16 18 19 20 21 20 19 17 15 14 13 12 12 12 12 12 13 13 12 11 11 11 11 11 11 11 12 13 13 12 11 12 13 14 15 16 17 18 19 19 20 21 21 21
22 22 24 24 24 24 22 20 19 17 17 16 14 14 15 15 14 13 14 15 15 15 15 17 20 21 21 20 19 18 17 14 11 11 12 13 16 17 19 20 19 17 17 18 19 19 20 21 24 25 23 23 20 18 20 22 23 23 21 18 16 15 14 13 12 12 12 12 12 12 12 10 10 10 11 11 10 9 10 11 12 13 12 12 12 12 13 14 14 15 16 17 17 17 18 20 21
24 25 25 25 25 24 21 20 19 18 17 16 15 15 16 15 12 11 12 13 14 14 15 17 18 19 19 18 17 16 14 12 10 9 9 13 19 19 19 19 17 16 15 15 16 18 20 25 26 22 22 23 22 24 26 28 27 24 21 18 16 13 11 10 10 11 11 12 12 11 10 10 10 10 11 11 11 10 10 11 11 11 11 11 11 11 13 14 14 15 16 16 17 17 17 18 20
26 26 25 26 25 23 21 20 20 19 18 17 16 16 16 14 12 11 12 13 14 15 16 17 18 18 19 18 17 15 15 13 11 8 8 15 22 20 18 17 15 14 14 14 15 14 15 21 21 17 17 18 21 24 23 25 30 29 24 19 14 11 9 8 9 10 12 12 11 9 9 10 11 11 11 12 13 12 11 11 10 9 9 9 9 10 10 11 12 13 14 14 15 16 17 17 18
27 25 25 26 25 23 22 21 21 20 20 18 17 17 16 14 13 13 14 15 15 15 16 18 18 19 19 18 17 16 16 14 12 8 9 17 20 17 17 13 9 9 9 10 12 13 14 16 16 15 14 14 17 22 20 18 23 25 20 14 11 8 7 7 9 10 12 12 10 9 10 11 10 10 11 14 14 12 11 10 8 8 8 8 9 9 9 8 8 8 8 8 10 12 14 16 17
27 26 26 26 24 24 23 23 23 22 22 21 20 20 18 16 17 17 18 18 16 16 17 18 20 20 20 18 18 17 16 15 13 11 12 16 13 11 13 11 6 5 5 6 8 9 12 13 14 14 12 10 12 17 15 10 11 14 11 9 7 6 7 8 9 10 11 11 10 10 11 11 11 10 11 13 12 11 11 9 8 8 8 9 10 10 10 9 7 6 6 7 8 10 11 13 14
28 27 27 26 25 24 24 24 25 24 25 24 24 23 20 19 20 20 21 20 18 18 18 19 21 22 21 20 19 18 18 16 15 14 16 18 14 11 9 8 8 5 4 5 6 8 9 10 11 10 6 3 6 12 13 10 8 9 8 7 6 6 8 10 10 10 9 9 9 9 11 11 11 10 11 11 10 10 10 10 9 8 9 10 10 11 11 9 7 8 8 10 10 10 10 11 12
28 28 27 26 25 25 25 25 26 27 28 26 26 25 21 21 21 21 22 21 20 20 20 21 23 22 21 21 20 20 19 17 15 16 19 20 18 13 8 4 7 8 7 6 7 8 9 8 8 7 5 2 2 9 12 10 7 7 6 5 6 8 10 11 11 10 9 9 9 9 10 11 10 10 11 11 10 10 10 10 10 9 10 11 11 12 11 8 8 9 10 11 11 10 11 11 11
28 27 27 27 27 26 26 27 28 28 29 28 27 25 22 21 21 22 22 23 23 21 22 23 24 22 22 21 20 20 19 17 16 17 20 20 19 17 12 9 10 12 11 10 8 8 8 7 6 8 8 4 2 5 7 7 6 6 7 7 8 10 11 12 12 11 10 9 9 9 10 11 11 10 11 10 10 10 10 10 10 11 11 11 12 12 11 9 8 9 10 10 9 10 11 11 11
27 27 28 28 27 27 27 29 29 29 29 29 27 25 23 22 22 23 24 25 25 23 24 25 24 23 23 21 19 19 18 18 18 18 20 21 20 19 16 15 17 17 16 14 11 8 8 7 6 12 13 9 8 9 8 7 9 10 9 9 10 12 13 13 12 11 11 10 10 10 10 11 11 10 10 9 9 10 10 10 10 11 11 11 13 12 11 10 10 9 10 10 10 11 11 11 10
27 28 29 29 28 28 28 29 30 29 29 28 26 25 24 22 22 24 26 28 26 24 25 25 24 24 22 20 18 17 17 17 19 19 20 21 22 21 21 22 23 21 19 16 13 9 8 8 8 13 17 18 19 20 14 10 11 12 11 11 11 13 13 13 12 12 12 11 11 10 10 11 11 10 10 10 9 10 11 10 10 10 11 11 13 13 11 11 12 11 10 10 11 12 11 10 10
29 30 30 30 29 28 29 30 30 29 28 28 26 24 24 23 23 25 28 29 27 25 25 25 24 24 22 20 17 16 16 17 18 19 21 22 23 23 23 24 23 20 18 16 13 11 10 10 10 11 16 20 23 22 17 11 10 11 12 12 12 12 13 13 13 12 12 12 11 10 10 10 10 10 11 10 10 10 11 11 10 9 10 11 13 14 13 13 14 13 13 13 14 13 12 11 11
30 30 30 29 29 29 29 30 30 29 28 27 25 24 25 25 25 27 28 27 24 23 23 23 22 22 21 20 17 15 15 15 16 18 20 21 22 21 21 22 20 17 15 14 13 11 11 11 10 11 13 15 16 16 15 11 10 11 12 12 11 12 12 13 13 13 12 11 10 9 9 9 10 10 11 10 10 10 11 11 10 10 10 11 13 14 14 14 15 15 15 15 15 15 14 13 13
29 29 29 29 29 28 28 29 30 29 26 24 23 24 26 26 25 25 24 21 19 20 20 20 19 19 21 20 17 14 14 14 14 16 17 18 19 18 18 17 16 13 12 12 12 12 12 12 11 11 11 12 12 13 12 11 11 11 12 11 11 12 13 14 14 14 11 10 9 8 7 7 8 10 10 10 10 11 11 11 11 11 11 12 13 14 14 14 15 15 16 16 16 16 15 15 14
29 29 28 28 27 26 27 28 28 26 22 21 22 23 24 24 22 20 19 16 17 19 19 18 17 18 19 18 15 14 14 13 13 14 15 16 15 15 14 13 12 11 11 11 12 13 14 14 14 13 13 12 12 12 11 10 11 12 11 11 11 12 13 13 14 12 10 8 8 8 7 6 7 8 9 10 10 10 11 11 11 12 12 12 13 14 15 15 15 16 17 18 18 16 15 15 15
27 27 26 26 24 24 25 26 25 22 19 19 20 20 21 20 18 16 15 15 17 18 18 19 19 20 20 17 14 14 13 12 12 12 13 13 13 13 12 12 11 11 11 12 13 15 16 16 16 15 13 12 11 11 11 12 12 12 11 11 11 11 11 11 11 9 8 7 7 7 7 6 6 7 8 9 10 11 11 11 12 12 12 13 13 15 16 16 16 17 18 19 18 17 17 16 17
23 23 23 23 22 23 24 23 22 20 18 18 19 19 19 18 16 14 14 15 16 17 17 18 19 19 19 16 12 12 11 9 10 11 10 10 12 13 12 11 10 10 11 13 14 17 19 19 17 14 11 11 12 12 13 13 13 12 11 11 10 10 9 8 8 8 9 9 8 8 8 8 7 6 7 8 9 11 11 12 12 12 13 13 14 15 16 16 17 17 18 19 19 19 18 18 18
19 19 19 20 21 22 23 22 20 19 18 19 20 20 19 18 16 14 15 15 16 16 16 17 18 18 17 13 12 12 10 9 9 10 8 8 11 13 12 10 9 10 13 15 19 22 22 20 15 10 8 10 13 15 15 14 13 12 11 10 9 9 9 8 8 9 11 12 12 10 9 10 9 8 8 9 10 11 12 13 13 14 14 14 15 15 16 17 17 18 19 19 20 20 20 20 20
16 17 18 20 21 22 22 21 20 19 19 20 21 21 20 19 17 16 16 16 16 17 17 17 17 17 15 13 13 11 9 8 8 10 9 7 10 13 13 11 11 14 17 18 20 19 18 16 10 5 9 12 15 16 15 14 13 13 12 12 11 11 11 11 10 10 10 12 14 15 14 14 13 11 10 10 11 11 12 13 14 15 15 15 16 17 17 18 19 19 20 21 21 21 22 22 22
15 16 18 20 21 21 22 22 21 21 21 21 22 22 21 20 18 18 18 18 19 19 18 17 17 16 15 14 12 9 8 7 7 8 9 8 11 13 15 14 15 17 16 15 16 15 16 15 10 8 11 13 14 15 15 15 15 15 14 13 11 12 12 11 10 9 9 10 13 15 16 16 16 14 12 11 11 12 13 14 15 17 17 17 17 17 18 19 20 20 21 21 22 22 23 23 23
16 18 20 21 21 21 22 22 22 23 23 23 24 23 21 21 20 19 20 21 21 21 19 19 17 15 14 12 11 10 9 8 7 8 10 10 12 14 16 16 15 14 13 13 15 16 18 17 14 15 16 13 13 13 14 15 16 17 16 15 13 12 12 11 11 12 12 12 13 15 15 15 15 14 13 12 12 13 14 15 17 18 19 19 19 19 20 20 21 21 21 22 22 22 23 23 23
18 19 21 21 22 22 22 23 23 25 26 26 26 25 23 22 22 22 22 22 23 22 20 17 15 13 12 11 10 11 12 11 10 10 11 12 12 15 17 17 16 13 11 14 17 17 21 22 21 20 17 12 12 13 14 15 15 17 18 18 16 14 13 13 14 16 15 14 14 14 13 13 13 13 13 13 13 14 15 16 17 18 19 19 20 21 21 21 22 22 22 23 23 23 23 23 23
19 21 21 21 22 23 23 24 25 26 28 29 28 27 26 25 25 24 24 23 22 21 18 14 12 11 11 11 11 12 14 14 12 13 13 13 12 14 17 18 18 16 14 16 19 19 19 20 19 18 14 12 13 14 16 17 16 17 17 18 18 16 15 15 16 18 18 16 14 13 12 12 13 14 14 15 15 15 15 16 16 17 18 19 20 21 22 22 23 23 24 24 24 24 23 23 22
20 21 21 22 23 24 25 26 27 27 29 30 29 29 29 28 27 27 25 25 23 21 18 15 12 11 11 12 13 14 16 16 14 14 15 15 14 15 18 20 19 18 18 19 22 21 18 14 13 12 11 11 14 16 16 18 20 20 19 19 19 18 16 16 16 17 19 19 17 14 12 12 13 14 14 15 15 16 16 16 16 17 17 18 19 20 22 23 24 24 25 25 25 24 23 22 21
20 20 21 22 23 25 26 27 28 28 28 30 30 31 31 30 29 29 28 27 26 23 20 17 15 13 12 13 14 15 17 18 17 17 17 18 18 18 20 21 21 22 22 21 21 21 19 17 17 17 12 9 12 14 15 17 20 22 21 20 20 20 19 18 18 17 18 21 19 14 12 12 13 14 14 14 15 15 15 15 15 16 16 17 19 20 21 22 23 24 24 25 25 24 23 22 20
18 19 19 20 22 24 26 27 28 28 29 30 31 32 32 32 31 31 30 29 27 25 23 21 19 17 16 15 15 16 18 19 19 19 20 21 22 23 22 20 21 25 24 22 23 23 21 20 22 22 14 9 11 12 13 15 17 19 20 21 22 22 21 21 21 20 20 21 22 17 14 13 13 13 14 14 15 15 15 15 15 15 16 17 18 19 20 21 22 23 23 24 24 23 23 22 20
19 20 21 22 23 25 26 27 27 28 30 31 32 32 33 33 33 32 32 30 29 27 26 25 23 21 19 19 19 19 20 21 21 21 22 23 25 26 24 20 23 27 26 23 24 26 25 22 21 19 14 12 14 13 11 13 14 15 16 18 22 22 21 22 24 25 24 23 24 20 16 16 15 15 15 15 15 15 15 15 15 15 15 16 18 19 20 21 22 22 23 23 23 22 22 21 20
23 24 24 24 24 25 26 27 28 28 29 31 32 33 34 34 33 33 32 31 31 30 29 28 27 25 24 23 23 23 23 24 24 24 24 26 28 28 25 26 29 29 29 27 25 26 26 24 22 20 18 18 19 15 12 13 13 14 16 17 20 21 20 22 24 26 26 25 25 23 20 19 18 17 16 16 16 16 15 15 15 15 15 16 17 18 19 20 21 21 21 21 21 21 20 20 19
25 25 25 24 24 25 26 27 28 29 29 30 32 34 35 34 33 34 34 33 32 32 30 29 29 28 28 28 26 25 25 25 25 25 25 28 31 28 28 31 32 30 30 29 27 26 25 23 21 21 21 20 19 17 15 14 14 16 18 18 20 21 21 22 23 27 30 27 26 26 25 22 20 18 16 16 17 16 16 15 15 14 14 15 15 16 17 18 18 19 19 19 19 19 19 18 18
27 26 25 23 24 26 27 26 28 29 30 30 31 34 36 35 35 35 35 34 34 33 32 31 30 31 31 30 28 26 24 24 25 26 27 31 32 28 28 30 29 28 28 26 24 24 24 23 22 22 22 20 18 16 15 14 14 16 18 18 18 19 19 19 18 21 24 24 25 28 28 25 22 18 16 17 17 16 16 15 15 14 14 14 14 15 16 16 17 17 17 17 17 17 17 17 17
28 27 25 24 25 26 27 26 27 28 29 29 30 32 34 35 36 36 35 35 34 33 32 32 31 31 32 31 29 27 24 24 26 28 30 32 33 30 30 30 27 26 26 24 23 23 23 23 22 21 21 19 17 14 13 13 15 17 18 18 18 18 16 14 13 14 13 16 22 26 28 26 21 18 18 19 19 18 17 16 15 15 15 15 15 16 16 16 17 17 17 17 17 17 17 17 17
28 28 27 26 26 25 25 25 25 26 26 28 29 29 30 31 32 33 32 32 31 30 30 30 30 30 31 29 27 26 25 25 27 29 31 33 32 31 31 31 27 25 24 23 21 20 20 21 22 22 20 18 15 13 12 13 15 17 19 20 20 20 18 15 13 11 10 11 15 18 19 19 18 17 18 20 20 19 18 18 17 17 17 17 17 18 18 18 18 18 18 19 18 18 18 18 18
29 28 27 26 25 25 25 25 25 25 26 27 27 27 27 26 26 26 26 25 25 25 26 26 27 28 28 26 24 24 25 26 28 29 32 33 32 32 32 32 29 25 23 23 21 20 20 22 23 22 20 18 15 13 13 14 15 17 20 21 21 21 21 19 16 14 12 11 11 13 15 15 16 17 17 18 19 19 19 19 19 19 19 19 18 18 18 19 19 19 20 20 19 19 19 18 18
28 27 25 24 24 24 24 25 25 26 27 27 27 27 25 24 23 22 21 20 20 21 22 23 24 25 24 22 21 21 23 26 27 29 31 32 31 31 30 28 27 24 21 21 21 21 21 22 23 22 21 19 17 16 16 16 17 18 19 21 22 21 20 20 18 16 13 10 11 14 15 16 17 17 17 18 18 19 19 20 20 20 20 20 18 18 17 18 18 18 19 19 19 19 18 18 17
Wind_Direction
256 255 254 253 252 252 253 253 256 256 255 257 257 258 258 258 257 256 256 256 259 260 262 264 265 266 267 267 267 268 269 270 270 270 269 269 270 268 268 267 267 267 266 266 266 267 270 273 276 279 281 283 286 291 296 299 302 304 305 300 294 293 295 301 305 308 310 311 313 313 315 317 316 313 309 308 306 306 306 305 307 308 308 308 307 304 302 297 293 291 282 273 274 259 241 243 254
254 253 252 251 250 251 252 251 253 255 255 256 257 257 258 257 256 255 256 257 258 259 260 261 263 264 265 266 267 268 268 268 268 268 268 269 268 267 266 266 267 266 266 265 266 268 270 273 276 279 280 282 286 289 294 297 300 302 303 298 292 291 292 297 302 305 307 308 311 313 313 314 314 309 306 304 303 304 305 306 307 308 308 308 305 301 297 292 287 284 276 263 264 252 236 238 248
252 251 250 250 249 250 251 250 252 255 255 257 258 258 258 258 256 256 257 257 256 257 258 259 260 262 263 264 265 265 265 266 266 266 266 267 266 266 266 266 266 266 266 267 268 270 272 275 278 280 282 284 287 290 293 295 297 298 297 294 292 291 292 296 299 301 302 306 310 311 311 310 309 306 303 302 301 301 303 304 305 306 307 307 305 301 296 291 285 281 272 257 252 246 235 233 244
251 249 249 249 249 249 250 251 252 255 257 259 259 258 257 257 256 257 258 257 257 258 259 259 259 260 262 262 264 264 263 264 264 264 264 264 264 265 265 266 267 267 268 270 271 273 276 280 281 283 285 287 288 289 291 292 293 293 291 289 290 291 294 297 297 298 300 304 309 309 307 306 306 305 303 302 301 300 301 302 304 305 305 306 305 302 296 289 283 278 268 252 241 239 234 232 241
250 249 249 249 249 249 250 251 252 254 256 257 256 256 257 257 257 259 259 258 259 260 261 261 261 262 262 262 264 263 262 263 263 264 264 263 264 264 265 266 267 267 269 271 273 277 282 283 283 286 288 289 289 289 289 288 288 288 286 284 285 288 292 294 294 296 299 303 306 304 302 302 304 305 302 300 300 300 301 303 304 304 303 304 302 299 292 284 279 273 263 249 234 232 231 230 239
250 249 249 249 249 249 250 251 252 253 253 253 255 256 257 256 256 258 258 258 259 260 262 263 263 264 263 262 262 262 263 264 263 264 264 263 264 264 265 265 266 267 270 273 278 283 286 286 286 287 288 289 288 288 288 285 282 282 280 278 279 282 286 286 289 295 299 302 301 299 298 299 301 302 301 298 298 302 305 305 304 302 301 300 298 293 287 280 274 268 259 248 233 228 227 228 238
250 250 249 249 249 249 250 251 251 252 252 253 255 255 255 255 255 256 257 259 260 261 262 262 263 263 262 263 262 262 263 263 264 264 264 264 265 265 266 267 269 271 274 279 284 286 288 288 288 288 288 287 286 287 288 282 275 273 273 272 272 273 276 278 284 292 296 296 295 295 294 296 298 298 295 293 297 305 309 308 305 302 298 295 293 290 285 278 270 264 256 247 235 226 224 225 234
250 249 249 249 249 249 250 251 251 252 252 252 253 253 254 254 254 256 259 261 261 261 262 262 262 262 263 264 262 262 263 263 264 265 266 267 268 268 269 271 274 277 281 285 286 288 290 290 291 290 287 284 282 286 290 281 270 267 265 264 264 265 266 269 277 285 288 288 289 291 292 294 295 294 292 294 301 306 306 304 302 300 296 291 287 286 284 278 270 263 255 245 236 227 222 224 231
249 249 249 249 249 249 249 250 250 251 251 250 250 252 253 255 256 259 260 261 261 262 262 261 261 261 261 262 261 262 263 264 265 266 268 269 270 272 273 276 279 282 286 288 289 290 292 293 293 290 286 282 281 284 288 282 269 263 260 260 259 259 258 261 269 275 279 281 285 288 290 292 293 294 297 302 306 306 304 300 297 294 292 288 282 278 279 279 273 265 255 246 238 229 223 223 230
250 249 249 250 250 250 250 249 250 250 250 251 250 251 255 258 260 261 261 261 261 262 262 261 260 259 259 260 261 262 262 263 265 267 268 269 270 273 275 278 282 286 289 290 291 292 293 294 292 290 287 281 280 280 280 276 266 261 263 265 260 254 251 254 261 266 272 276 280 284 287 291 295 300 303 306 307 308 306 301 295 291 288 285 280 273 271 275 274 266 256 246 238 230 223 223 230
251 250 250 250 250 250 250 249 249 249 250 251 251 253 257 259 260 259 259 260 261 260 260 260 259 258 259 259 260 261 262 263 264 265 266 268 270 272 275 279 284 287 289 291 291 292 293 294 291 291 288 281 278 277 272 268 263 262 266 271 261 246 245 252 258 260 264 270 275 281 287 293 298 302 303 305 307 308 307 303 299 295 289 283 278 271 266 268 269 265 255 244 237 230 224 222 229
251 250 250 250 250 250 250 250 249 249 249 250 252 254 254 256 257 256 256 258 259 258 258 257 257 258 258 258 259 260 262 264 264 265 267 269 271 273 277 281 285 288 290 291 291 293 292 293 291 289 285 279 276 274 268 263 261 259 261 266 253 242 251 257 255 254 257 266 274 282 289 294 298 301 303 305 306 306 305 305 303 298 291 281 274 269 263 261 264 264 256 245 237 229 224 224 229
252 251 250 249 250 250 249 249 249 249 249 251 253 253 250 250 253 254 254 255 256 256 257 256 255 255 255 256 258 259 261 263 265 267 270 272 275 279 282 286 288 290 291 290 291 292 291 293 292 291 287 276 272 273 266 260 259 257 256 254 246 249 260 255 248 252 258 268 276 284 291 296 299 301 303 305 305 304 302 302 303 298 291 278 270 268 264 260 259 261 257 247 238 228 223 225 229
252 251 251 249 248 247 246 247 248 250 251 251 252 251 247 246 248 251 251 251 253 254 255 256 255 254 254 255 257 260 262 264 266 269 273 277 281 285 289 290 291 291 290 290 291 290 290 291 286 288 287 274 273 274 265 258 259 258 252 244 247 257 255 247 249 256 260 268 278 287 294 298 299 299 300 302 302 302 300 298 295 292 291 280 270 267 266 261 255 254 253 246 237 229 223 223 228
251 251 250 248 247 244 244 245 247 249 250 250 250 248 246 245 245 247 249 249 250 252 253 255 256 255 254 256 257 260 262 266 270 274 279 284 288 291 293 293 293 293 293 292 292 290 288 285 277 279 281 278 278 275 268 264 261 253 242 239 252 261 250 247 256 260 261 269 280 290 297 300 298 298 300 301 302 302 298 295 288 281 282 281 276 270 266 262 255 250 247 242 235 229 224 222 226
249 249 249 247 245 242 242 245 247 248 248 248 249 247 246 245 245 245 247 246 247 250 251 253 256 257 256 257 259 262 267 272 277 281 286 290 293 294 294 294 294 294 295 293 292 291 290 288 281 277 278 279 280 276 270 264 256 247 241 245 253 255 249 249 255 258 262 271 282 292 298 299 301 303 304 302 302 300 295 290 285 280 277 275 277 274 267 261 257 251 244 239 233 229 225 223 224
248 248 248 246 243 239 240 243 246 246 246 247 247 247 245 245 246 246 247 247 247 249 251 253 257 258 259 260 264 269 275 279 284 288 291 292 293 294 293 293 294 295 297 295 293 294 289 285 278 273 268 266 271 273 267 259 251 247 249 249 244 241 242 247 255 258 264 275 285 293 296 297 300 303 302 300 299 297 292 286 282 280 278 276 275 275 270 263 257 253 247 239 232 228 227 226 226
249 248 247 243 238 234 236 242 245 246 246 246 247 247 246 245 247 248 249 252 253 253 253 255 257 260 263 267 271 276 279 283 287 289 291 291 291 290 289 291 294 297 301 299 297 296 285 276 272 270 262 256 261 266 259 250 250 258 253 241 234 231 237 251 260 262 268 277 286 292 295 295 297 299 298 296 294 292 288 285 282 279 278 277 276 274 273 267 259 255 251 243 235 229 227 228 229
249 247 243 238 234 230 236 243 246 247 248 250 251 251 249 248 248 250 253 256 257 256 256 258 260 265 270 274 277 279 281 285 287 289 290 289 288 288 290 295 298 303 306 300 294 291 283 277 273 268 261 254 255 256 251 245 251 256 242 228 225 228 243 262 265 265 271 278 287 292 294 296 298 297 294 292 290 287 284 283 283 281 279 277 275 273 271 265 258 255 252 247 239 233 228 228 230
247 244 238 236 235 232 236 244 248 250 251 253 254 256 255 253 250 250 253 255 256 257 260 264 269 274 277 278 279 279 282 285 286 287 287 287 289 291 298 300 298 302 303 293 283 278 278 276 270 265 261 258 255 252 246 244 245 242 236 231 227 233 253 265 267 269 274 280 286 289 292 299 302 299 294 290 289 286 284 283 283 283 280 275 272 268 264 259 255 253 251 247 242 236 230 228 229
243 240 234 235 237 235 238 244 250 251 251 254 256 260 261 260 255 250 250 251 254 257 262 269 276 279 278 278 279 281 283 284 284 285 286 288 291 292 292 286 282 281 284 289 284 274 270 262 260 264 265 258 249 245 242 237 231 228 235 233 226 243 264 267 272 275 278 283 284 284 288 295 303 304 298 291 288 285 283 282 282 280 277 274 268 261 257 253 250 249 248 246 243 239 233 228 228
239 235 232 234 238 239 241 244 248 249 251 254 258 261 263 263 257 251 249 250 253 257 262 270 275 275 276 278 280 282 282 280 282 284 285 283 279 278 277 272 266 261 269 283 278 266 257 253 257 259 258 245 230 232 234 228 223 223 231 240 238 260 270 275 284 283 283 286 285 284 285 289 297 300 298 292 287 284 283 281 280 278 274 271 265 258 253 249 248 247 247 246 243 240 234 229 226
234 231 231 233 237 239 240 241 244 248 252 255 259 262 263 261 256 251 250 252 255 260 264 269 270 271 274 277 279 279 277 277 280 280 277 274 271 264 261 264 260 255 261 269 265 259 255 258 257 253 248 233 225 228 225 220 221 227 241 260 272 273 274 286 294 291 291 294 295 289 286 290 294 295 294 292 288 283 280 276 275 275 273 266 260 255 250 248 249 248 247 246 243 240 235 230 226
231 228 230 233 235 238 239 240 242 247 253 257 261 264 262 258 255 252 253 256 258 262 266 268 268 269 272 275 276 274 273 276 276 273 271 272 272 261 255 261 258 253 256 260 263 259 260 263 249 242 236 223 222 226 222 223 229 238 250 260 268 273 279 290 294 295 295 298 299 292 287 289 290 291 290 288 284 280 277 274 271 273 273 269 260 252 249 248 247 247 247 245 244 241 237 232 228
228 225 229 231 233 236 239 241 243 245 251 257 260 260 258 253 251 252 256 258 256 258 264 265 265 266 270 273 271 267 269 272 268 265 270 273 270 262 260 264 262 260 261 260 262 261 265 258 232 224 219 215 219 220 225 233 239 248 256 259 264 271 279 285 289 290 291 296 298 293 287 286 287 287 285 281 280 281 281 278 273 271 271 270 264 255 249 245 242 242 243 243 243 242 240 237 232
226 225 228 230 231 236 240 242 244 244 247 252 254 254 253 248 247 250 252 251 248 247 250 253 256 262 268 270 266 264 266 264 254 255 271 276 268 258 258 266 269 269 269 263 258 262 264 243 222 219 217 220 231 239 245 245 247 251 252 257 265 271 277 280 285 287 289 294 295 292 286 284 284 282 281 279 278 278 278 277 273 271 269 267 265 258 249 244 241 240 239 239 240 241 242 241 237
226 226 229 230 232 236 240 242 244 244 244 247 247 248 250 247 246 249 247 243 239 236 237 243 251 260 264 264 264 262 259 249 236 249 272 274 270 266 263 269 275 276 279 272 261 266 259 234 224 227 226 232 250 264 259 251 251 249 247 259 266 264 266 274 285 292 295 296 292 289 285 284 283 283 284 278 272 271 271 273 275 276 273 266 258 251 246 245 245 245 243 242 242 243 244 244 241
228 229 230 232 234 237 239 242 243 244 243 243 244 245 248 247 246 247 245 239 232 230 234 242 250 257 259 261 262 256 251 239 231 248 261 267 274 275 270 271 278 282 286 280 271 273 255 232 231 240 245 254 272 273 262 254 252 248 249 257 255 247 254 273 292 300 300 296 293 290 283 281 281 283 283 275 270 270 271 273 279 282 278 265 251 245 243 243 247 248 247 248 248 247 244 241 237
230 230 231 232 235 236 237 240 242 243 243 243 243 244 246 246 246 246 246 242 234 229 233 241 249 255 258 260 259 253 249 238 232 244 253 268 279 279 276 278 282 286 288 282 278 277 264 252 255 264 271 279 282 269 263 264 253 244 245 242 235 240 257 280 295 301 298 294 295 292 284 280 280 282 281 275 272 273 274 274 281 281 273 255 236 229 224 222 232 241 243 245 245 243 240 237 234
231 231 232 233 235 235 236 240 242 243 244 244 243 243 242 242 244 244 245 245 240 233 233 240 247 253 257 258 257 255 252 242 237 242 253 269 287 303 289 268 253 278 291 296 299 296 285 276 272 269 271 277 272 258 256 267 247 233 231 224 226 246 267 288 294 294 291 288 288 285 284 286 288 289 285 278 274 274 274 274 277 274 264 246 226 213 203 200 218 237 246 250 245 239 236 235 237
231 231 231 233 235 236 237 239 242 244 244 243 242 242 240 240 242 242 244 245 243 239 238 243 248 252 253 254 256 256 255 247 241 245 254 264 280 313 304 239 230 270 288 302 311 321 311 289 276 260 242 250 251 244 248 257 244 230 226 223 240 263 278 286 285 284 282 278 278 277 280 284 288 290 285 281 277 272 269 269 271 268 262 249 229 214 206 210 236 249 253 256 253 247 240 237 236
231 231 232 233 235 236 237 240 243 244 246 245 244 244 242 241 243 243 245 247 245 242 242 246 250 251 250 251 254 255 257 253 248 250 257 264 268 284 302 257 260 280 282 289 290 309 315 299 285 245 194 114 240 240 246 248 236 223 224 233 259 274 278 276 275 276 275 273 273 275 278 279 282 284 281 281 280 272 264 262 265 263 258 250 235 223 220 231 244 245 248 248 247 250 250 247 243
230 231 232 232 234 236 237 240 242 244 247 247 246 246 245 243 245 247 249 249 247 244 244 247 249 249 247 247 250 253 256 258 255 254 258 265 264 268 286 303 302 295 288 286 280 296 310 300 275 223 192 139 165 243 247 239 231 232 240 255 267 270 269 267 270 274 276 277 275 274 276 276 277 280 281 279 278 275 267 262 262 260 252 243 235 229 233 240 236 234 241 244 244 246 252 255 257
228 230 231 231 233 235 236 238 240 242 245 246 247 247 247 245 247 250 251 250 248 244 243 245 245 244 243 244 247 249 252 257 260 261 263 266 267 271 280 292 300 298 290 287 281 286 301 293 250 222 215 205 226 266 280 256 248 250 254 262 266 266 264 265 270 278 282 280 275 271 269 271 274 280 281 275 273 275 271 263 258 257 250 236 228 227 234 234 225 223 232 244 250 246 249 256 261
224 226 228 229 230 232 234 237 239 241 243 246 247 248 250 250 249 250 250 250 248 243 240 241 239 239 240 241 240 243 248 254 260 265 268 268 269 272 275 283 292 293 288 285 277 271 277 272 244 224 228 236 249 267 275 257 248 252 255 259 261 262 263 268 274 278 280 276 272 267 262 265 271 276 276 272 269 267 267 263 254 252 250 239 226 226 235 230 220 221 223 241 257 251 250 256 259
221 223 225 227 228 229 232 236 239 241 243 245 248 251 254 253 249 247 248 249 247 242 239 238 237 238 240 239 234 236 243 249 256 262 267 269 270 271 273 279 284 285 283 279 269 259 253 253 248 238 238 245 252 260 262 253 251 253 253 254 257 261 266 274 278 276 273 270 268 264 262 263 267 272 272 268 264 258 259 262 256 250 249 248 236 232 238 233 225 228 227 235 253 253 250 256 261
222 223 225 227 228 229 231 236 240 242 243 246 250 253 253 251 247 244 246 247 245 241 239 238 240 240 240 239 234 232 235 241 248 255 260 264 267 268 270 274 277 278 277 274 265 254 246 247 250 246 242 243 247 254 258 260 261 257 252 251 254 260 267 273 275 273 271 268 266 264 262 262 263 266 266 265 261 256 256 259 261 258 253 253 247 242 242 236 230 232 230 234 247 252 252 256 261
225 226 226 228 228 229 231 235 240 243 245 248 250 248 248 246 244 243 244 243 238 235 234 234 236 239 241 238 230 225 226 232 240 246 252 257 261 264 265 268 271 273 272 270 267 260 256 256 250 241 238 244 253 259 263 267 265 256 248 244 247 253 260 265 268 269 272 274 273 269 264 264 264 264 264 264 261 258 258 259 261 260 256 254 251 249 247 241 236 235 236 241 248 252 254 259 264
228 228 228 229 229 231 234 236 240 244 245 244 243 242 243 243 240 238 236 230 225 226 225 222 223 228 234 232 224 221 224 226 229 237 246 252 257 258 257 260 266 271 270 266 266 266 263 259 252 247 249 253 255 257 261 261 256 250 244 239 242 248 252 258 263 267 274 280 282 282 276 271 269 269 269 267 264 260 258 257 257 258 258 256 253 251 249 245 242 242 245 249 250 251 254 261 268
230 230 230 231 231 231 235 237 240 240 236 232 233 235 237 239 236 229 225 220 217 220 219 217 216 217 222 224 220 219 221 219 218 230 242 250 255 254 252 256 264 270 272 269 268 266 261 254 249 243 240 239 239 246 252 251 245 242 242 245 248 250 249 254 262 270 279 284 286 290 290 285 278 275 273 270 267 263 259 255 252 252 254 254 252 251 250 248 247 247 249 250 251 254 256 260 264
232 233 233 231 229 229 233 236 236 234 227 222 223 227 230 236 234 225 219 218 217 216 214 215 216 220 226 227 218 211 214 213 212 221 234 245 251 253 255 255 259 267 269 266 260 253 247 240 234 229 223 228 237 244 247 244 243 244 247 251 253 253 250 252 264 276 281 283 283 289 296 298 292 285 279 273 267 263 261 258 253 249 248 247 248 249 250 250 250 251 252 254 257 259 260 261 262
233 232 229 226 224 225 230 232 231 228 222 218 220 221 224 229 227 221 219 217 214 209 208 214 219 226 231 222 206 206 211 213 210 208 212 232 246 251 254 249 252 257 254 253 247 243 239 225 216 224 239 251 254 250 247 248 253 258 258 254 252 253 252 254 268 276 278 277 276 278 287 294 294 289 283 277 269 262 258 256 254 250 246 244 243 244 246 247 249 250 252 255 258 261 263 263 264
228 225 222 222 223 223 227 228 225 221 218 218 221 219 221 225 222 221 219 209 205 204 207 218 222 225 225 211 205 209 211 210 203 197 199 221 242 249 251 245 242 243 246 251 246 240 235 218 210 259 271 266 264 259 256 256 258 260 259 257 255 254 252 257 271 280 282 278 274 275 279 287 291 287 279 272 267 262 257 254 252 250 246 243 242 241 242 243 245 247 249 251 254 257 260 262 264
224 221 221 223 223 222 223 223 220 218 215 215 221 222 221 222 223 223 216 200 199 205 208 216 220 221 222 219 221 225 222 219 211 203 203 218 234 243 248 244 241 246 255 259 250 243 236 218 214 251 253 252 259 266 270 269 269 267 264 262 260 255 251 253 267 282 293 288 282 281 282 286 289 288 282 271 263 257 253 252 250 249 248 245 244 243 243 244 245 246 248 250 252 254 256 258 260
223 222 223 224 224 222 222 220 216 217 216 213 219 225 223 223 225 224 217 207 206 211 214 218 220 222 226 229 236 244 242 240 236 227 218 219 227 238 246 245 246 257 268 263 249 241 235 221 215 230 235 236 246 260 271 276 280 279 276 274 271 265 255 253 266 280 290 293 290 289 287 286 284 282 280 274 266 256 248 245 243 244 245 245 245 245 246 247 248 249 250 252 253 255 257 258 260
222 225 226 226 226 225 223 219 216 217 219 216 219 225 224 226 228 225 221 218 217 220 223 222 220 225 233 239 245 251 253 253 252 245 233 228 229 235 245 251 255 263 267 260 251 242 236 226 218 222 229 239 249 259 267 272 280 281 281 278 275 272 263 260 272 281 287 290 289 289 288 284 278 273 271 268 264 258 251 245 241 241 243 245 246 248 249 250 252 253 254 255 257 258 259 260 261
224 228 229 229 229 229 226 222 219 218 221 222 223 226 227 229 232 230 226 225 227 230 230 227 227 234 243 248 247 247 252 256 254 248 246 244 240 238 244 251 258 262 259 258 257 253 247 236 228 229 236 251 258 261 266 272 278 279 276 272 269 267 262 261 269 278 287 291 286 286 285 279 271 265 262 261 258 256 253 249 245 244 245 246 248 250 252 254 256 257 257 257 258 258 259 259 260
230 233 233 232 232 232 229 227 225 223 223 226 227 228 229 230 232 234 232 232 235 236 235 235 240 248 251 254 251 247 252 257 257 255 258 262 257 246 241 245 255 258 253 253 256 258 258 255 253 249 244 253 258 258 265 275 281 280 274 269 267 264 260 259 263 272 285 291 289 284 280 273 270 265 260 258 256 254 253 250 249 248 248 249 251 252 253 255 256 257 258 258 258 257 257 257 257
234 236 236 234 233 233 232 231 231 230 227 227 228 228 228 229 232 234 234 237 238 238 239 239 244 250 251 253 255 254 257 261 263 264 265 269 266 254 246 244 246 249 246 247 251 255 256 253 253 251 248 261 263 258 264 273 279 279 270 263 261 259 258 257 258 265 279 287 286 280 273 269 269 269 263 257 255 254 253 252 251 252 252 253 253 253 254 255 255 256 258 258 259 258 257 256 255
240 242 242 240 239 238 237 236 237 237 233 229 228 228 227 228 233 235 235 238 239 240 241 240 244 250 249 253 259 260 260 261 263 264 265 268 265 260 259 251 244 247 247 246 249 253 256 250 245 250 260 282 283 275 275 277 282 280 268 258 255 255 257 257 258 264 270 278 280 275 266 262 263 267 266 260 256 256 255 255 254 254 255 255 255 255 255 254 254 255 255 257 258 258 257 255 254
241 242 242 242 241 241 241 242 241 241 239 235 232 231 229 229 232 236 238 239 240 241 241 242 245 248 248 254 262 265 265 264 263 263 263 264 264 263 264 258 252 255 253 251 251 254 257 255 251 256 266 280 289 293 285 281 287 284 272 264 262 262 264 262 263 266 265 267 273 273 264 258 258 262 264 261 256 254 254 254 254 253 254 255 256 257 256 256 255 254 253 253 254 255 255 255 255
240 240 242 243 244 244 244 244 243 241 240 238 235 234 233 232 232 237 240 240 241 242 243 245 250 253 253 255 259 264 267 265 263 263 263 263 262 258 254 249 250 254 255 255 256 256 256 256 258 265 268 272 280 282 272 274 285 285 277 271 270 271 269 265 264 266 263 260 265 269 265 257 256 258 259 258 255 252 250 250 250 251 252 254 255 256 256 255 254 253 253 252 253 254 255 256 257
241 243 244 244 245 245 244 243 243 242 240 238 236 235 236 235 235 237 239 242 244 245 247 252 256 261 262 261 261 265 267 262 257 257 257 260 260 255 250 248 248 252 255 257 259 256 253 255 260 266 269 271 274 273 269 275 284 283 280 277 274 275 272 270 272 271 264 257 256 262 263 255 251 251 253 256 255 252 249 248 248 249 250 252 254 254 254 254 254 253 252 252 252 253 254 256 258
237 240 242 241 241 242 240 239 240 240 239 239 238 237 237 238 237 239 241 243 247 250 253 257 259 263 266 267 269 271 267 256 249 247 247 253 260 261 257 254 254 254 255 256 258 254 250 256 263 267 271 274 274 275 277 280 280 277 277 277 277 282 279 273 281 283 268 252 246 253 256 249 242 243 248 253 255 252 251 249 248 247 248 250 252 253 253 253 252 251 251 250 250 250 252 254 256
234 236 237 237 238 241 241 240 240 240 239 239 239 239 239 240 240 242 245 247 250 254 257 260 262 264 267 270 272 270 261 250 246 245 245 252 261 263 259 257 258 256 254 256 259 256 254 259 264 266 270 274 277 283 284 281 278 276 278 277 277 289 295 281 282 295 280 249 240 246 247 241 237 240 246 251 251 251 250 249 249 248 248 249 250 251 252 252 252 252 252 251 250 250 250 251 254
235 235 235 236 236 238 240 241 241 242 241 241 241 241 242 242 244 246 249 251 254 257 260 263 265 265 267 268 268 264 256 247 245 245 247 252 256 258 259 262 262 256 251 253 259 262 262 263 264 265 269 273 279 285 280 273 273 277 282 284 279 285 299 298 290 298 300 271 250 245 243 240 240 243 246 249 249 250 251 251 251 251 251 252 252 253 254 256 257 257 256 256 255 255 256 256 257
236 236 237 239 238 237 238 240 239 239 240 241 242 243 245 247 249 251 253 255 258 260 263 265 265 265 265 264 261 257 251 246 243 244 248 250 251 253 258 264 265 259 251 252 259 265 264 263 263 264 267 271 276 280 278 274 275 277 281 286 286 287 294 298 295 298 309 303 278 261 250 245 245 242 242 245 249 252 255 255 255 253 252 252 254 258 261 263 264 264 262 261 260 259 259 259 259
234 236 237 239 241 241 240 242 242 242 242 243 245 246 249 251 252 254 256 258 260 262 263 262 262 262 261 258 254 249 246 243 241 241 243 245 247 250 254 257 258 255 250 250 254 257 257 259 261 262 265 271 277 282 284 284 285 285 284 283 286 289 293 295 293 292 295 292 279 268 255 246 244 241 239 242 247 254 257 257 256 252 249 250 252 255 258 262 265 266 265 264 263 262 259 257 257